Tracking 17636 objects as of 30-April-2016
HD Live streaming from Space Station
objects crossing your sky now

COSMOS 2315

Track COSMOS 2315 now!
10-day predictions
COSMOS 2315 is classified as:


NORAD ID: 23603
Int'l Code: 1995-032A
Perigee: 972.9 km
Apogee: 1,020.4 km
Inclination: 82.9 °
Period: 104.9 minutes
Semi major axis: 7367 km
RCS: 2.3448 m2 (large)
Launch date: July 5, 1995
Source: Commonwealth of Independent States (former USSR) (CIS)
Launch site: PLESETSK MISSILE AND SPACE COMPLEX (PKMTR)
Your satellite tracking list
Your tracking list is empty





NASA's NSSDC Master Catalog

Two Line Element Set (TLE):
1 23603U 95032A   16120.14866007  .00000032  00000-0  17766-4 0  9991
2 23603  82.9012 118.4259 0032224  57.5197 355.9012 13.72817541 43095
Source of the keplerian elements: AFSPC

N2YO: 298